EN

Hourly Weather Altea

Today, 24 January, Sunday

Time Temperature Precipitation Wind Pressure Humidity
00:00 +8°C° 0 mm 9 mps 754 mmHg 71%
01:00 +10°C° 0 mm 9 mps 753 mmHg 73%
02:00 +10°C° 0 mm 8 mps 753 mmHg 75%
03:00 +10°C° 0 mm 8 mps 752 mmHg 77%
04:00 +11°C° 0 mm 8 mps 753 mmHg 73%
05:00 +11°C° 0 mm 8 mps 753 mmHg 70%
06:00 +12°C° 0 mm 8 mps 753 mmHg 66%
07:00 +12°C° 0 mm 8 mps 754 mmHg 63%
08:00 +12°C° 0 mm 8 mps 755 mmHg 61%
09:00 +12°C° 0 mm 9 mps 756 mmHg 59%
10:00 +14°C° 0 mm 7 mps 757 mmHg 54%
11:00 +15°C° 0 mm 6 mps 757 mmHg 50%
12:00 +16°C° 0 mm 5 mps 758 mmHg 45%
13:00 +16°C° 0 mm 6 mps 757 mmHg 45%
14:00 +16°C° 0 mm 6 mps 757 mmHg 46%
15:00 +16°C° 0 mm 7 mps 757 mmHg 46%
16:00 +15°C° 0 mm 7 mps 758 mmHg 51%
17:00 +14°C° 0 mm 6 mps 758 mmHg 57%
18:00 +11°C° 0 mm 6 mps 758 mmHg 62%
19:00 +12°C° 0 mm 5 mps 759 mmHg 63%
20:00 +12°C° 0 mm 5 mps 759 mmHg 63%
21:00 +12°C° 0 mm 5 mps 760 mmHg 63%
22:00 +12°C° 0 mm 5 mps 760 mmHg 65%
23:00 +12°C° 0 mm 4 mps 760 mmHg 66%

Tomorrow, 25 January, Monday

Time Temperature Precipitation Wind Pressure Humidity
00:00 +11°C° 0 mm 4 mps 760 mmHg 67%
01:00 +11°C° 0 mm 4 mps 760 mmHg 69%
02:00 +11°C° 0 mm 4 mps 760 mmHg 71%
03:00 +11°C° 0 mm 4 mps 760 mmHg 73%
04:00 +11°C° 0 mm 4 mps 761 mmHg 73%
05:00 +10°C° 0 mm 3 mps 761 mmHg 74%
06:00 +10°C° 0 mm 3 mps 761 mmHg 75%
07:00 +11°C° 0 mm 3 mps 762 mmHg 72%
08:00 +12°C° 0 mm 3 mps 762 mmHg 70%
09:00 +12°C° 0 mm 3 mps 763 mmHg 67%
10:00 +14°C° 0 mm 3 mps 763 mmHg 61%
11:00 +16°C° 0 mm 2 mps 763 mmHg 55%
12:00 +17°C° 0 mm 2 mps 763 mmHg 49%
13:00 +17°C° 0 mm 2 mps 763 mmHg 50%
14:00 +17°C° 0 mm 3 mps 763 mmHg 51%
15:00 +17°C° 0 mm 3 mps 762 mmHg 52%
16:00 +14°C° 0 mm 3 mps 763 mmHg 62%
17:00 +13°C° 0 mm 3 mps 763 mmHg 71%
18:00 +11°C° 0 mm 3 mps 764 mmHg 81%
19:00 +11°C° 0 mm 3 mps 764 mmHg 80%
20:00 +11°C° 0 mm 4 mps 764 mmHg 79%
21:00 +10°C° 0 mm 4 mps 765 mmHg 77%
22:00 +11°C° 0 mm 4 mps 765 mmHg 77%
23:00 +11°C° 0 mm 4 mps 765 mmHg 76%

Day after tomorrow, 26 January, Tuesday

Time Temperature Precipitation Wind Pressure Humidity
00:00 +11°C° 0 mm 4 mps 765 mmHg 75%
01:00 +11°C° 0 mm 4 mps 765 mmHg 76%
02:00 +11°C° 0 mm 4 mps 765 mmHg 78%
03:00 +10°C° 0 mm 3 mps 765 mmHg 79%
04:00 +11°C° 0 mm 3 mps 765 mmHg 80%
05:00 +11°C° 0 mm 3 mps 765 mmHg 81%
06:00 +12°C° 0 mm 2 mps 765 mmHg 82%
07:00 +13°C° 0 mm 2 mps 765 mmHg 78%
08:00 +14°C° 0 mm 2 mps 766 mmHg 75%
09:00 +16°C° 0 mm 2 mps 766 mmHg 71%
10:00 +17°C° 0 mm 2 mps 766 mmHg 66%
11:00 +18°C° 0 mm 3 mps 766 mmHg 62%
12:00 +20°C° 0 mm 3 mps 766 mmHg 57%
13:00 +20°C° 0 mm 4 mps 765 mmHg 56%
14:00 +20°C° 0 mm 4 mps 765 mmHg 56%
15:00 +21°C° 0 mm 5 mps 764 mmHg 56%
16:00 +20°C° 0 mm 5 mps 765 mmHg 59%
17:00 +19°C° 0 mm 5 mps 765 mmHg 63%
18:00 +17°C° 0 mm 5 mps 765 mmHg 67%
19:00 +16°C° 0 mm 5 mps 765 mmHg 68%
20:00 +16°C° 0 mm 5 mps 765 mmHg 70%
21:00 +16°C° 0 mm 5 mps 766 mmHg 72%
22:00 +15°C° 0 mm 5 mps 766 mmHg 73%
23:00 +15°C° 0 mm 4 mps 766 mmHg 75%

27 January, Wednesday

Time Temperature Precipitation Wind Pressure Humidity
00:00 +15°C° 0 mm 4 mps 766 mmHg 77%
01:00 +15°C° 0 mm 4 mps 766 mmHg 77%
02:00 +15°C° 0 mm 4 mps 766 mmHg 78%
03:00 +17°C° 0 mm 4 mps 766 mmHg 78%
04:00 +16°C° 0 mm 3 mps 766 mmHg 79%
05:00 +16°C° 0 mm 2 mps 766 mmHg 80%
06:00 +16°C° 0 mm 2 mps 766 mmHg 81%
07:00 +17°C° 0 mm 2 mps 766 mmHg 77%
08:00 +18°C° 0 mm 2 mps 766 mmHg 74%
09:00 +20°C° 0 mm 1 mps 767 mmHg 70%
10:00 +20°C° 0 mm 2 mps 767 mmHg 66%
11:00 +21°C° 0 mm 2 mps 766 mmHg 62%
12:00 +23°C° 0 mm 2 mps 766 mmHg 57%
13:00 +23°C° 0 mm 2 mps 766 mmHg 58%
14:00 +21°C° 0 mm 2 mps 766 mmHg 59%
15:00 +21°C° 0 mm 2 mps 765 mmHg 60%
16:00 +20°C° 0 mm 2 mps 765 mmHg 66%
17:00 +18°C° 0 mm 2 mps 765 mmHg 73%
18:00 +17°C° 0 mm 2 mps 765 mmHg 79%
19:00 +16°C° 0 mm 2 mps 766 mmHg 78%
20:00 +16°C° 0 mm 2 mps 766 mmHg 77%
21:00 +16°C° 0 mm 2 mps 766 mmHg 76%
22:00 +15°C° 0 mm 2 mps 766 mmHg 75%
23:00 +15°C° 0 mm 2 mps 766 mmHg 74%

28 January, Thursday

Time Temperature Precipitation Wind Pressure Humidity
00:00 +15°C° 0 mm 2 mps 766 mmHg 73%
01:00 +15°C° 0 mm 2 mps 766 mmHg 75%
02:00 +14°C° 0 mm 2 mps 766 mmHg 76%
03:00 +14°C° 0 mm 1 mps 766 mmHg 78%
04:00 +14°C° 0 mm 1 mps 766 mmHg 78%
05:00 +14°C° 0 mm 1 mps 766 mmHg 79%
06:00 +13°C° 0 mm 1 mps 766 mmHg 79%
07:00 +15°C° 0 mm 1 mps 767 mmHg 75%
08:00 +16°C° 0 mm 2 mps 767 mmHg 70%
09:00 +18°C° 0 mm 2 mps 767 mmHg 65%
10:00 +19°C° 0 mm 2 mps 767 mmHg 61%
11:00 +20°C° 0 mm 2 mps 767 mmHg 57%
12:00 +23°C° 0 mm 2 mps 767 mmHg 54%
13:00 +23°C° 0 mm 2 mps 767 mmHg 54%
14:00 +23°C° 0 mm 2 mps 766 mmHg 55%
15:00 +23°C° 0 mm 2 mps 766 mmHg 56%
16:00 +20°C° 0 mm 2 mps 766 mmHg 63%
17:00 +18°C° 0 mm 2 mps 766 mmHg 69%
18:00 +16°C° 0 mm 2 mps 766 mmHg 76%

29 January, Friday

Time Temperature Precipitation Wind Pressure Humidity
Show more